Location: Unspecified
(0.0000°N, 0.0000°E)
Time: 07:43:18
(UTC+00:00)

S-56A Canister/Altair - Pass Details

Date: 02 June 2024
Orbit: 637 x 2489 km, 38.9° (Epoch: 22 June)

Event Time Altitude Azimuth Distance (km) Brightness Sun altitude
Rises 22:03:25 0° 215° (SW) 4,450 - -54.2°
Reaches altitude 10° 22:06:09 10° 209° (SSW) 3,701 - -54.7°
Maximum altitude 22:15:53 51° 135° (SE) 2,382 - -56.5°
Drops below altitude 10° 22:29:16 10° 64° (ENE) 5,021 - -58.9°
Exits shadow 22:33:29 - 60° (ENE) 6,086 12.1 -59.6°
Sets 22:33:38 0° 60° (ENE) 6,122 12.1 -59.6°
